Location: Asheville, NC
(35.6000°N, 82.5500°W)
Time: 22:04:17

N. Korean satellite - Pass Details

Date: 04 January 2018
Orbit: 460 x 512 km, 97.2° (Epoch: 23 March)

Event Time Altitude Azimuth Distance (km) Brightness Sun altitude
Rises 18:58:19 0° 186° (S) 2,607 10.6 -17.4°
Reaches altitude 10° 19:00:32 10° 196° (SSW) 1,723 9.7 -17.8°
Maximum altitude 19:03:57 34° 262° (W) 848 8.4 -18.5°
Drops below altitude 10° 19:07:21 10° 329° (NNW) 1,720 9.5 -19.2°
Sets 19:09:34 0° 339° (NNW) 2,601 10.4 -19.6°
